COSMOS 2251 DEB, 34114

Orbit data source: Space-Track

COSMOS 2251 DEB, 34114 is space debris in LEO originally from a launch on Wed, 16 Jun 1993 UTC launched from the Plesetsk Missile And Space Complex (PKMTR). The debris from Iridium 33, an American commercial communications satellite, has been tracked extensively since its accidental collision with the defunct Russian satellite Cosmos 2251 in 2009. This event, occurring at high speed in low Earth orbit (LEO), generated thousands of pieces of space debris, significantly increasing the risk of further collisions. The Iridium 33 debris cloud has impacted space traffic management and orbital debris mitigation strategies, making it a subject of ongoing study in space situational awareness.

Loading next visibility...
Identifier
34114, 1993-036KK
Orbit
LEO
Country
Flag of CISCIS
Related business
Manufacturer
Unknown
Mission
Spacecraft
Bus & Motor
Unknown
Mass
Unknown
Launch date (UTC)
1993-06-16 (33 years ago)
Launch vehicle
Unknown
Launch site
Plesetsk Missile And Space Complex (PKMTR)
Object type
Payload
Rocket body
Debris
Shape & HBR
Unknown shape, 0.1 m
Radar Cross Section
Small (<0.1 m²)

Expand to show TLE details & history
Last TLE update: 4 hours ago

TLE from 4 hours ago
0 COSMOS 2251 DEB
1 34114U 93036KK  26121.51641954  .00009104  00000-0  19075-2 0  9999
2 34114  74.0554 138.3298 0040913 103.4905  50.8387 14.59305422898385
Epoch: 2026-05-01T12:23Z
TLE epoch observation values (Epoch: 2026-05-01T12:23:38.648Z)
Latitude
24.30077°
Longitude
-94.40056°
Altitude
679.865 km
Speed
7.529 km/s
True Right ascension
20h 43m 49s
True Declination
24° 10' 14"
Sunlit
Object was in daylight at epoch
Visualization orbit readout
Latitude
Unknown
Longitude
Unknown
Altitude
Unknown
Speed
Unknown
Apparent Right ascension
Unknown
Apparent Declination
Unknown
Sunlit
N/A
Visualization observer readout
Local Sidereal Time
00:13:16
Azimuth
Unknown
Elevation
Unknown
Doppler factor
Unknown
Orbital elements
Apogee altitude
721.944 km
Perigee altitude
664.084 km
Semi-major axis
7,071.151 km
Eccentricity
0.00409
Inclination
74.0554°
RAAN
138.3298°
Arg. of periapsis
103.4905°
True anomaly
51.20339°
Mean anomaly
50.8387°
Eccentric anomaly
51.02093°
Mean motion
3.65013 °/min
Orbital period
98.63 mins
BSTAR
0.0019075
Loading maneuver chart data...
Computing Atmospheric mass density...

Documentation

Showing up to 5 results
|